カタログに戻る

DMSP 5D-2 F13 DEB

運用中SSO
NORAD 40516·DEBRIS·🇺🇸 United States

打ち上げ Mar 24, 1995 から Vandenberg Space Force Base

Loading…

次のパス (今後24時間)

TLE

最新Source: Space-Track

元期: Sep 14, 2026, 01:41 UTC

1 40516U 95015DC  26257.07074070  .00002826  00000-0  94844-3 0  9993
2 40516  98.7801 295.8028 0022080 217.4711 142.4937 14.37915282595247

AllMySatでDMSP 5D-2 F13 DEBをリアルタイム追跡

Download on the App Store